Regional Weather Roundup
Issued by NWS Jackson, KY

Home | Current Version | Previous Version | Graphics & Text | Print | Product List | Glossary On
Versions: 1 2 3 4 5 6 7 8 9 10 11 12 13 14 15 16 17 18 19 20 21 22 23 24 25 26 27 28 29 30 31 32 33 34 35 36 37 38 39 40 41 42 43 44 45 46 47 48 49 50
945
ASUS43 KJKL 060410
RWRJKL

EAST KENTUCKY HOURLY WEATHER ROUNDUP
NATIONAL WEATHER SERVICE JACKSON KY
1100 PM EST MON DEC 05 2016

NOTE: "FAIR" INDICATES FEW OR NO CLOUDS BELOW 12,000 FEET WITH
NO SIGNIFICANT WEATHER AND/OR OBSTRUCTIONS TO VISIBILITY.

* THESE REPORTS ARE NOT UNDER NWS QUALITY CONTROL AND MAY NOT
  REPORT WEATHER SUCH AS PRECIPITATION AND FOG.

KYZ079-080-083-085-087-088-110-112-115-119-120-060500
...EASTERN KENTUCKY...

CITY           SKY/WX    TMP DP  RH WIND       PRES   REMARKS
JACKSON        CLOUDY    43  35  73 VRB3      29.89F
LONDON         CLOUDY    46  38  73 NE5       29.86F
SOMERSET*      CLOUDY    45  37  76 NE3       29.88S
MONTICELLO*    CLOUDY    47  43  86 NW5       29.87S
WILLIAMSBURG*  CLOUDY    46  45  93 CALM      29.85F
MIDDLESBORO*   CLOUDY    49  44  81 W3        29.88R
HARLAN APT*    CLOUDY    50  41  71 CALM      29.88S
PIKE CO APT*   CLOUDY    43  38  80 N8        29.90F
MOREHEAD APT*  CLOUDY    43  34  70 E9        29.92F
ASHLAND*       CLOUDY    43  34  70 SE7       29.95F
$$

KYZ035-036-041-042-044-050-067-078-099-060500
...CENTRAL KENTUCKY...

CITY           SKY/WX    TMP DP  RH WIND       PRES   REMARKS
MT STERLING*   CLOUDY    43  36  75 E9        29.91F
FLEMING/MASON* CLOUDY    40  34  77 E8        29.95S WCI  35
DANVILLE*      CLOUDY    43  36  75 E6        29.87F
LEXINGTON      PTCLDY    44  35  70 E13       29.89F
FRANKFORT      CLOUDY    44  35  70 E12       29.88F
LOUISVILLE     CLOUDY    44  35  70 E7        29.87F
LEBANON*       MOCLDY    45  37  76 NE6       29.85F
GLASGOW*       CLOUDY    45  40  84 E7        29.81F
BOWLING GREEN  CLOUDY    46  40  79 E7        29.81F
$$

KYZ091>093-OHZ055-061-077-WVZ005-015-034-035-042-060500
...SOUTHERN OHIO/WEST VIRGINIA...

CITY           SKY/WX    TMP DP  RH WIND       PRES   REMARKS
COVINGTON      CLOUDY    39  33  79 E9        29.93F WCI  33
COLUMBUS       CLOUDY    33  29  85 E7        30.01F WCI  27
DAYTON         PTCLDY    32  28  85 E8        29.98S WCI  25
WILMINGTON     CLOUDY    34  31  88 E10       29.95F WCI  26
HUNTINGTON     CLOUDY    43  33  68 NE7       29.94F
CHARLESTON     CLOUDY    44  35  70 E9        29.95S
PINEVILLE*     CLOUDY    47  36  65 MISG      29.99R
BECKLEY        CLOUDY    44  32  62 SE16G26   29.95S
BLUEFIELD      CLOUDY    44  35  70 SE13G24   29.99R
LOGAN CO APT*  MOCLDY    45  36  70 CALM      29.91F
$$

VAZ002-007-008-TNZ017-027-036-066-071-060500
...SOUTHWEST VIRGINIA/EAST TENNESSEE...

CITY           SKY/WX    TMP DP  RH WIND       PRES   REMARKS
WISE*          CLOUDY    46  37  71 CALM      29.90F
JONESVILLE*    MOCLDY    48  45  87 NE3       29.91S
ABINGDON*      RAIN      49  46  87 E13       29.93F
BRISTOL        CLOUDY    48  45  89 E6        29.89F
MORRISTOWN*    CLOUDY    48  46  93 E8        29.84S
SEVIERVILLE*   PTCLDY    46  46 100 CALM      29.85R
KNOXVILLE      CLOUDY    49  45  86 NE9       29.83F
OAK RIDGE      CLOUDY    51  45  79 NE5       29.86F
CROSSVILLE     CLOUDY    47  46  97 VRB6      29.79F
NASHVILLE      CLOUDY    48  45  89 N3        29.80S
$$

...KEY TO REMARKS...
VSB - VISIBILITY IN MILES
WCI - WIND CHILL INDEX
HX  - HEAT INDEX

$$




USA.gov is the U.S. government's official web portal to all federal, state and local government web resources and services.